Terminal Aerodrome Forecast
Issued by NWS

Home | Current Version | Previous Version | Text Only | Print | Product List | Glossary On
Versions: 1 2 3 4 5 6 7 8 9 10 11 12 13 14 15 16 17 18 19 20 21 22 23 24 25 26 27
514
FTUS43 KLOT 172052 AAA
TAFMDW
TAF AMD
KMDW 172052Z 1721/1824 22004KT P6SM FEW010 BKN100 OVC250
     FM180200 22005KT 4SM BR OVC012
     FM180700 24005KT 3SM -DZ BR OVC007
      TEMPO 1810/1814 1SM -DZ BR
     FM182100 24008KT P6SM SCT010=

USA.gov is the U.S. government's official web portal to all federal, state and local government web resources and services.